Coral Topaz — 3ELB7 — position and weather

sailwx.info

Track history (hours):
 
Tides and Currents Weather Stations Pressure Air Temp Water Temp Dewpoint Dewpoint Depression Visibility Wind Speed Wind Dir Waves Ship Positions

Coral Topaz

Last reported at 2014-Nov-09 17:23 UTC. Time now 2014-Nov-28 22:56 UTC.
Position S 28°02' E 153°42'.
Warning: this ship's position is 19 days out of date.

Length 225 m; draft 12.5 m.

Type: Ship. MMSI: 372904000.

Date/timePositionNaut miles runAvg speedWind from/ knotsBaromVisibWave heightAir tempDewpointWater temp
2014-Nov-09 17:23S 28°02' E 153°42'910.2
2014-Nov-09 16:33S 28°10' E 153°44'269 9.9
2014-Nov-08 13:22S 32°33' E 152°38'810.1
2014-Nov-08 12:34S 32°38' E 152°31'1010.0
2014-Nov-08 11:34S 32°45' E 152°22'10 9.6
2014-Nov-08 10:33S 32°51' E 152°14'9 9.3
2014-Nov-08 09:33S 32°57' E 152°05'9 8.8
2014-Nov-08 08:33S 32°57' E 151°54'7 6.8
2014-Nov-08 07:34S 32°55' E 151°47'2 0.6
2014-Nov-08 04:15S 32°53' E 151°46'0 0.0
2014-Nov-08 01:27S 32°53' E 151°46'0 0.0
2014-Nov-07 23:33S 32°53' E 151°46'0 0.0
2014-Nov-07 22:33S 32°53' E 151°46'0 0.0
2014-Nov-07 21:33S 32°53' E 151°46'0 0.0
2014-Nov-07 20:27S 32°53' E 151°46'0 0.0
2014-Nov-07 19:33S 32°53' E 151°46'0 0.0
2014-Nov-07 18:33S 32°53' E 151°46'0 0.0
2014-Nov-07 17:33S 32°53' E 151°46'0 0.0
2014-Nov-07 16:33S 32°53' E 151°46'0 0.0
2014-Nov-07 15:33S 32°53' E 151°46'0 0.0
2014-Nov-07 14:33S 32°53' E 151°46'2 2.1
2014-Nov-07 13:33S 32°55' E 151°47'6 5.8
2014-Nov-07 12:32S 33°01' E 151°50'14 0.3
2014-Nov-05 16:32S 33°12' E 151°42'0 0.0
2014-Nov-05 13:11S 33°12' E 151°42'0 0.0
2014-Nov-05 06:23S 33°12' E 151°41'0 0.0
2014-Nov-05 02:29S 33°12' E 151°41'6 0.3
2014-Nov-04 08:33S 33°11' E 151°48'1413.6
2014-Nov-04 07:33S 33°09' E 152°04'1313.3
2014-Nov-04 06:33S 33°07' E 152°20'6 5.5
2014-Nov-04 05:30S 33°08' E 152°27'1 1.5
2014-Nov-04 04:33S 33°09' E 152°28'2 1.5
2014-Nov-04 03:27S 33°10' E 152°29'1 1.4
2014-Nov-04 02:27S 33°11' E 152°30'12 3.1
2014-Nov-03 22:33S 33°03' E 152°20'8 7.7
2014-Nov-03 21:32S 32°57' E 152°14'1 0.8
2014-Nov-03 20:32S 32°58' E 152°14'1 0.8
2014-Nov-03 19:32S 32°58' E 152°15'0 0.8
2014-Nov-03 19:08S 32°58' E 152°15'0 0.7
2014-Nov-03 18:32S 32°59' E 152°15'0 0.9
2014-Nov-03 18:11S 32°59' E 152°15'0 0.7
2014-Nov-03 17:50S 32°59' E 152°15'0 0.6
2014-Nov-03 17:32S 32°60' E 152°15'1 0.7
2014-Nov-03 16:32S 33°00' E 152°15'1 0.5
2014-Nov-03 14:32S 33°01' E 152°15'0 0.5
2014-Nov-03 13:32S 33°02' E 152°15'0 0.4
2014-Nov-03 12:32S 33°02' E 152°15'1 1.0
2014-Nov-03 11:32S 33°03' E 152°16'2 1.8
2014-Nov-03 10:32S 33°04' E 152°17'1 1.3
2014-Nov-03 09:32S 33°05' E 152°19'1 1.1
2014-Nov-03 08:32S 33°06' E 152°20'1 1.2
2014-Nov-03 07:29S 33°07' E 152°21'1 1.3
2014-Nov-03 06:32S 33°08' E 152°21'1 1.2
2014-Nov-03 05:32S 33°09' E 152°22'1 1.1
2014-Nov-03 04:29S 33°10' E 152°23'1 1.1
2014-Nov-03 03:32S 33°11' E 152°23'1 1.2
2014-Nov-03 02:26S 33°12' E 152°24'1 1.2
2014-Nov-03 01:23S 33°13' E 152°24'1 1.0
2014-Nov-03 00:23S 33°14' E 152°25'7 8.0
2014-Nov-02 23:33S 33°10' E 152°32'1311.9
2014-Nov-02 22:27S 33°00' E 152°42'1112.1
2014-Nov-02 21:33S 32°51' E 152°49'1312.1
2014-Nov-02 20:29S 32°41' E 152°59'6 0.4
2014-Nov-02 06:31S 32°39' E 153°06'38 2.0
2014-Nov-01 11:25S 33°08' E 152°37'0 0.4
2014-Nov-01 10:25S 33°07' E 152°36'1 0.9
2014-Nov-01 09:31S 33°07' E 152°36'1 1.0
2014-Nov-01 08:31S 33°06' E 152°36'1 0.7
2014-Nov-01 06:33S 33°04' E 152°36'1211.7
2014-Nov-01 05:33S 33°15' E 152°39'1313.4
2014-Nov-01 04:33S 33°27' E 152°46'1010.3
2014-Nov-01 03:33S 33°37' E 152°51'1 1.2
2014-Nov-01 02:29S 33°36' E 152°50'1 1.2
2014-Nov-01 01:26S 33°35' E 152°48'4 1.1
2014-Oct-31 21:26S 33°34' E 152°44'1 1.0
2014-Oct-31 20:32S 33°33' E 152°43'4 1.3
2014-Oct-31 17:26S 33°30' E 152°40'2 1.8
2014-Oct-31 16:32S 33°29' E 152°39'2 2.1
2014-Oct-31 15:32S 33°27' E 152°38'10 2.4
2014-Oct-31 11:20S 33°17' E 152°35'7 9.1
2014-Oct-31 10:33S 33°11' E 152°31'1212.2
2014-Oct-31 09:33S 33°00' E 152°24'1312.8
2014-Oct-31 08:33S 32°48' E 152°18'1414.3
2014-Oct-31 07:34S 32°39' E 152°31'1414.3
2014-Oct-31 06:34S 32°29' E 152°43'1513.8
2014-Oct-31 05:30S 32°16' E 152°51'1313.7
2014-Oct-31 04:33S 32°03' E 152°55'1313.5
2014-Oct-31 03:33S 31°51' E 153°01'1413.5
2014-Oct-31 02:33S 31°38' E 153°06'  
Track history (hours):
 
Tides and Currents Weather Stations Pressure Air Temp Water Temp Dewpoint Dewpoint Depression Visibility Wind Speed Wind Dir Waves Ship Positions

Coral Topaz

Last reported at 2014-Nov-09 17:23 UTC. Time now 2014-Nov-28 22:56 UTC.
Position S 28°02' E 153°42'.
Warning: this ship's position is 19 days out of date.

Length 225 m; draft 12.5 m.

Type: Ship. MMSI: 372904000.

Date/timePositionNaut miles runAvg speedWind from/ knotsBaromVisibWave heightAir tempDewpointWater temp
2014-Nov-09 17:23S 28°02' E 153°42'910.2
2014-Nov-09 16:33S 28°10' E 153°44'269 9.9
2014-Nov-08 13:22S 32°33' E 152°38'810.1
2014-Nov-08 12:34S 32°38' E 152°31'1010.0
2014-Nov-08 11:34S 32°45' E 152°22'10 9.6
2014-Nov-08 10:33S 32°51' E 152°14'9 9.3
2014-Nov-08 09:33S 32°57' E 152°05'9 8.8
2014-Nov-08 08:33S 32°57' E 151°54'7 6.8
2014-Nov-08 07:34S 32°55' E 151°47'2 0.6
2014-Nov-08 04:15S 32°53' E 151°46'0 0.0
2014-Nov-08 01:27S 32°53' E 151°46'0 0.0
2014-Nov-07 23:33S 32°53' E 151°46'0 0.0
2014-Nov-07 22:33S 32°53' E 151°46'0 0.0
2014-Nov-07 21:33S 32°53' E 151°46'0 0.0
2014-Nov-07 20:27S 32°53' E 151°46'0 0.0
2014-Nov-07 19:33S 32°53' E 151°46'0 0.0
2014-Nov-07 18:33S 32°53' E 151°46'0 0.0
2014-Nov-07 17:33S 32°53' E 151°46'0 0.0
2014-Nov-07 16:33S 32°53' E 151°46'0 0.0
2014-Nov-07 15:33S 32°53' E 151°46'0 0.0
2014-Nov-07 14:33S 32°53' E 151°46'2 2.1
2014-Nov-07 13:33S 32°55' E 151°47'6 5.8
2014-Nov-07 12:32S 33°01' E 151°50'14 0.3
2014-Nov-05 16:32S 33°12' E 151°42'0 0.0
2014-Nov-05 13:11S 33°12' E 151°42'0 0.0
2014-Nov-05 06:23S 33°12' E 151°41'0 0.0
2014-Nov-05 02:29S 33°12' E 151°41'6 0.3
2014-Nov-04 08:33S 33°11' E 151°48'1413.6
2014-Nov-04 07:33S 33°09' E 152°04'1313.3
2014-Nov-04 06:33S 33°07' E 152°20'6 5.5
2014-Nov-04 05:30S 33°08' E 152°27'1 1.5
2014-Nov-04 04:33S 33°09' E 152°28'2 1.5
2014-Nov-04 03:27S 33°10' E 152°29'1 1.4
2014-Nov-04 02:27S 33°11' E 152°30'12 3.1
2014-Nov-03 22:33S 33°03' E 152°20'8 7.7
2014-Nov-03 21:32S 32°57' E 152°14'1 0.8
2014-Nov-03 20:32S 32°58' E 152°14'1 0.8
2014-Nov-03 19:32S 32°58' E 152°15'0 0.8
2014-Nov-03 19:08S 32°58' E 152°15'0 0.7
2014-Nov-03 18:32S 32°59' E 152°15'0 0.9
2014-Nov-03 18:11S 32°59' E 152°15'0 0.7
2014-Nov-03 17:50S 32°59' E 152°15'0 0.6
2014-Nov-03 17:32S 32°60' E 152°15'1 0.7
2014-Nov-03 16:32S 33°00' E 152°15'1 0.5
2014-Nov-03 14:32S 33°01' E 152°15'0 0.5
2014-Nov-03 13:32S 33°02' E 152°15'0 0.4
2014-Nov-03 12:32S 33°02' E 152°15'1 1.0
2014-Nov-03 11:32S 33°03' E 152°16'2 1.8
2014-Nov-03 10:32S 33°04' E 152°17'1 1.3
2014-Nov-03 09:32S 33°05' E 152°19'1 1.1
2014-Nov-03 08:32S 33°06' E 152°20'1 1.2
2014-Nov-03 07:29S 33°07' E 152°21'1 1.3
2014-Nov-03 06:32S 33°08' E 152°21'1 1.2
2014-Nov-03 05:32S 33°09' E 152°22'1 1.1
2014-Nov-03 04:29S 33°10' E 152°23'1 1.1
2014-Nov-03 03:32S 33°11' E 152°23'1 1.2
2014-Nov-03 02:26S 33°12' E 152°24'1 1.2
2014-Nov-03 01:23S 33°13' E 152°24'1 1.0
2014-Nov-03 00:23S 33°14' E 152°25'7 8.0
2014-Nov-02 23:33S 33°10' E 152°32'1311.9
2014-Nov-02 22:27S 33°00' E 152°42'1112.1
2014-Nov-02 21:33S 32°51' E 152°49'1312.1
2014-Nov-02 20:29S 32°41' E 152°59'6 0.4
2014-Nov-02 06:31S 32°39' E 153°06'38 2.0
2014-Nov-01 11:25S 33°08' E 152°37'0 0.4
2014-Nov-01 10:25S 33°07' E 152°36'1 0.9
2014-Nov-01 09:31S 33°07' E 152°36'1 1.0
2014-Nov-01 08:31S 33°06' E 152°36'1 0.7
2014-Nov-01 06:33S 33°04' E 152°36'1211.7
2014-Nov-01 05:33S 33°15' E 152°39'1313.4
2014-Nov-01 04:33S 33°27' E 152°46'1010.3
2014-Nov-01 03:33S 33°37' E 152°51'1 1.2
2014-Nov-01 02:29S 33°36' E 152°50'1 1.2
2014-Nov-01 01:26S 33°35' E 152°48'4 1.1
2014-Oct-31 21:26S 33°34' E 152°44'1 1.0
2014-Oct-31 20:32S 33°33' E 152°43'4 1.3
2014-Oct-31 17:26S 33°30' E 152°40'2 1.8
2014-Oct-31 16:32S 33°29' E 152°39'2 2.1
2014-Oct-31 15:32S 33°27' E 152°38'10 2.4
2014-Oct-31 11:20S 33°17' E 152°35'7 9.1
2014-Oct-31 10:33S 33°11' E 152°31'1212.2
2014-Oct-31 09:33S 33°00' E 152°24'1312.8
2014-Oct-31 08:33S 32°48' E 152°18'1414.3
2014-Oct-31 07:34S 32°39' E 152°31'1414.3
2014-Oct-31 06:34S 32°29' E 152°43'1513.8
2014-Oct-31 05:30S 32°16' E 152°51'1313.7
2014-Oct-31 04:33S 32°03' E 152°55'1313.5
2014-Oct-31 03:33S 31°51' E 153°01'1413.5
2014-Oct-31 02:33S 31°38' E 153°06'  

Dump ship's entire track history